Time,TemperatureF,DewpointF,PressureIn,WindDirection,WindDirectionDegrees,WindSpeedMPH,WindSpeedGustMPH,Humidity,HourlyPrecipIn,Conditions,Clouds,dailyrainin,SoftwareType,DateUTC
2013-09-04 00:00:00,70.4,59.0,29.83,NW,319,7.0,14.0,68,0.00,,,0.11,weatherlink.com 1.10,2013-09-04 04:00:00,
2013-09-04 00:15:00,70.3,60.0,29.83,NW,310,4.0,11.0,69,0.00,,,0.00,weatherlink.com 1.10,2013-09-04 04:15:00,
2013-09-04 00:30:00,70.0,60.0,29.83,NW,310,4.0,9.0,70,0.00,,,0.00,weatherlink.com 1.10,2013-09-04 04:30:00,
2013-09-04 00:45:00,69.9,60.0,29.83,NW,306,7.0,9.0,70,0.00,,,0.00,weatherlink.com 1.10,2013-09-04 04:45:00,
2013-09-04 01:00:00,69.7,61.0,29.84,WNW,292,3.0,8.0,74,0.00,,,0.00,weatherlink.com 1.10,2013-09-04 05:00:00,
2013-09-04 01:15:00,69.5,61.0,29.84,WNW,285,6.0,8.0,73,0.00,,,0.00,weatherlink.com 1.10,2013-09-04 05:15:00,
2013-09-04 01:30:00,69.3,60.0,29.84,West,269,5.0,9.0,73,0.00,,,0.00,weatherlink.com 1.10,2013-09-04 05:30:00,
2013-09-04 01:45:00,69.1,60.0,29.85,West,274,6.0,10.0,72,0.00,,,0.00,weatherlink.com 1.10,2013-09-04 05:45:00,
2013-09-04 02:00:00,68.8,60.0,29.85,WNW,290,9.0,12.0,73,0.00,,,0.00,weatherlink.com 1.10,2013-09-04 06:00:00,
2013-09-04 02:15:00,68.5,59.0,29.86,WNW,288,9.0,12.0,72,0.00,,,0.00,weatherlink.com 1.10,2013-09-04 06:15:00,
2013-09-04 02:30:00,68.3,60.0,29.86,WNW,295,7.0,12.0,74,0.00,,,0.00,weatherlink.com 1.10,2013-09-04 06:30:00,
2013-09-04 02:45:00,68.2,59.0,29.86,WNW,290,7.0,11.0,73,0.00,,,0.00,weatherlink.com 1.10,2013-09-04 06:45:00,
2013-09-04 03:00:00,68.0,59.0,29.85,NW,325,7.0,13.0,73,0.00,,,0.00,weatherlink.com 1.10,2013-09-04 07:00:00,
2013-09-04 03:15:00,67.9,59.0,29.85,NW,312,5.0,9.0,74,0.00,,,0.00,weatherlink.com 1.10,2013-09-04 07:15:00,
2013-09-04 03:30:00,67.8,60.0,29.85,WNW,288,9.0,13.0,75,0.00,,,0.00,weatherlink.com 1.10,2013-09-04 07:30:00,
2013-09-04 03:45:00,67.7,60.0,29.86,WNW,285,5.0,11.0,76,0.00,,,0.00,weatherlink.com 1.10,2013-09-04 07:45:00,
2013-09-04 04:00:00,67.5,59.0,29.86,West,281,6.0,10.0,75,0.00,,,0.00,weatherlink.com 1.10,2013-09-04 08:00:00,
2013-09-04 04:15:00,67.5,60.0,29.86,West,276,8.0,10.0,77,0.00,,,0.00,weatherlink.com 1.10,2013-09-04 08:15:00,
2013-09-04 04:30:00,67.4,60.0,29.86,West,262,6.0,11.0,77,0.00,,,0.00,weatherlink.com 1.10,2013-09-04 08:30:00,
2013-09-04 04:46:00,67.5,60.0,29.87,WNW,294,8.0,13.0,77,0.00,,,0.00,weatherlink.com 1.10,2013-09-04 08:46:00,
2013-09-04 05:01:00,67.3,60.0,29.87,WNW,288,8.0,13.0,78,0.00,,,0.00,weatherlink.com 1.10,2013-09-04 09:01:00,
2013-09-04 05:16:00,67.2,60.0,29.88,West,276,7.0,12.0,77,0.00,,,0.00,weatherlink.com 1.10,2013-09-04 09:16:00,
2013-09-04 05:31:00,67.0,60.0,29.88,West,276,6.0,15.0,78,0.00,,,0.00,weatherlink.com 1.10,2013-09-04 09:31:00,
2013-09-04 05:46:00,66.9,59.0,29.88,WNW,291,5.0,13.0,77,0.00,,,0.00,weatherlink.com 1.10,2013-09-04 09:46:00,
2013-09-04 06:01:00,66.7,60.0,29.89,NW,311,8.0,11.0,80,0.00,,,0.00,weatherlink.com 1.10,2013-09-04 10:01:00,
2013-09-04 06:16:00,66.7,59.0,29.89,WNW,299,11.0,17.0,77,0.00,,,0.00,weatherlink.com 1.10,2013-09-04 10:16:00,
2013-09-04 06:31:00,66.5,59.0,29.90,WNW,290,7.0,12.0,78,0.00,,,0.00,weatherlink.com 1.10,2013-09-04 10:31:00,
2013-09-04 06:46:00,66.3,59.0,29.90,WNW,291,11.0,17.0,78,0.00,,,0.00,weatherlink.com 1.10,2013-09-04 10:46:00,
2013-09-04 07:01:00,66.6,59.0,29.91,WNW,293,10.0,17.0,77,0.00,,,0.00,weatherlink.com 1.10,2013-09-04 11:01:00,
2013-09-04 07:16:00,66.7,59.0,29.91,West,276,10.0,13.0,77,0.00,,,0.00,weatherlink.com 1.10,2013-09-04 11:16:00,
2013-09-04 07:31:00,66.8,60.0,29.92,WNW,287,12.0,12.0,78,0.00,,,0.00,weatherlink.com 1.10,2013-09-04 11:31:00,
2013-09-04 07:46:00,67.0,59.0,29.93,WNW,302,10.0,12.0,76,0.00,,,0.00,weatherlink.com 1.10,2013-09-04 11:46:00,
2013-09-04 08:01:00,67.2,59.0,29.93,WNW,290,13.0,15.0,75,0.00,,,0.00,weatherlink.com 1.10,2013-09-04 12:01:00,
2013-09-04 08:16:00,67.4,59.0,29.93,WNW,290,11.0,14.0,74,0.00,,,0.00,weatherlink.com 1.10,2013-09-04 12:16:00,
2013-09-04 08:31:00,67.7,59.0,29.94,WNW,298,8.0,14.0,73,0.00,,,0.00,weatherlink.com 1.10,2013-09-04 12:31:00,
2013-09-04 08:46:00,67.8,59.0,29.94,WNW,301,12.0,16.0,73,0.00,,,0.00,weatherlink.com 1.10,2013-09-04 12:46:00,
2013-09-04 09:01:00,68.2,60.0,29.94,NW,311,7.0,15.0,74,0.00,,,0.00,weatherlink.com 1.10,2013-09-04 13:01:00,
2013-09-04 09:16:00,68.6,59.0,29.94,WNW,300,6.0,14.0,72,0.00,,,0.00,weatherlink.com 1.10,2013-09-04 13:16:00,
2013-09-04 09:31:00,69.1,59.0,29.94,WNW,286,11.0,15.0,69,0.00,,,0.00,weatherlink.com 1.10,2013-09-04 13:31:00,
2013-09-04 09:46:00,69.6,59.0,29.95,WNW,300,9.0,13.0,70,0.00,,,0.00,weatherlink.com 1.10,2013-09-04 13:46:00,
2013-09-04 10:01:00,70.2,58.0,29.94,WNW,300,5.0,9.0,66,0.00,,,0.00,weatherlink.com 1.10,2013-09-04 14:01:00,
2013-09-04 10:16:00,70.5,59.0,29.93,West,281,5.0,12.0,67,0.00,,,0.00,weatherlink.com 1.10,2013-09-04 14:16:00,
2013-09-04 10:31:00,70.8,57.0,29.93,NW,307,8.0,15.0,62,0.00,,,0.00,weatherlink.com 1.10,2013-09-04 14:31:00,
2013-09-04 10:46:00,71.0,57.0,29.93,NW,314,8.0,12.0,61,0.00,,,0.00,weatherlink.com 1.10,2013-09-04 14:46:00,
2013-09-04 11:01:00,71.3,56.0,29.93,WNW,293,6.0,11.0,58,0.00,,,0.00,weatherlink.com 1.10,2013-09-04 15:01:00,
2013-09-04 11:16:00,71.8,56.0,29.93,WNW,302,4.0,9.0,57,0.00,,,0.00,weatherlink.com 1.10,2013-09-04 15:16:00,
2013-09-04 11:31:00,72.5,54.0,29.92,NW,306,10.0,11.0,53,0.00,,,0.00,weatherlink.com 1.10,2013-09-04 15:31:00,
2013-09-04 11:46:00,73.3,53.0,29.92,WNW,295,4.0,13.0,49,0.00,,,0.00,weatherlink.com 1.10,2013-09-04 15:46:00,
2013-09-04 12:01:00,73.7,53.0,29.92,NW,311,4.0,9.0,49,0.00,,,0.00,weatherlink.com 1.10,2013-09-04 16:01:00,
2013-09-04 12:16:00,74.4,54.0,29.91,WNW,300,8.0,14.0,50,0.00,,,0.00,weatherlink.com 1.10,2013-09-04 16:16:00,
2013-09-04 12:32:00,74.5,53.0,29.91,West,280,10.0,11.0,47,0.00,,,0.00,weatherlink.com 1.10,2013-09-04 16:32:00,
2013-09-04 12:47:00,74.8,54.0,29.91,WSW,256,10.0,12.0,48,0.00,,,0.00,weatherlink.com 1.10,2013-09-04 16:47:00,
2013-09-04 13:02:00,75.2,54.0,29.91,WNW,303,7.0,10.0,48,0.00,,,0.00,weatherlink.com 1.10,2013-09-04 17:02:00,
2013-09-04 13:17:00,75.6,54.0,29.91,WSW,250,9.0,12.0,47,0.00,,,0.00,weatherlink.com 1.10,2013-09-04 17:17:00,
2013-09-04 13:32:00,75.8,55.0,29.91,WNW,292,3.0,8.0,48,0.00,,,0.00,weatherlink.com 1.10,2013-09-04 17:32:00,
2013-09-04 13:47:00,76.4,55.0,29.91,West,276,2.0,10.0,48,0.00,,,0.00,weatherlink.com 1.10,2013-09-04 17:47:00,
2013-09-04 14:02:00,77.1,55.0,29.90,WNW,291,8.0,13.0,47,0.00,,,0.00,weatherlink.com 1.10,2013-09-04 18:02:00,
2013-09-04 14:17:00,77.6,56.0,29.90,West,273,9.0,11.0,47,0.00,,,0.00,weatherlink.com 1.10,2013-09-04 18:17:00,
2013-09-04 14:32:00,77.7,56.0,29.90,West,275,9.0,15.0,47,0.00,,,0.00,weatherlink.com 1.10,2013-09-04 18:32:00,
2013-09-04 14:47:00,78.0,56.0,29.89,WNW,300,5.0,13.0,47,0.00,,,0.00,weatherlink.com 1.10,2013-09-04 18:47:00,
2013-09-04 15:17:00,78.8,57.0,29.89,WSW,245,10.0,12.0,47,0.00,,,0.00,weatherlink.com 1.10,2013-09-04 19:17:00,
2013-09-04 15:32:00,79.2,56.0,29.89,WNW,296,6.0,13.0,45,0.00,,,0.00,weatherlink.com 1.10,2013-09-04 19:32:00,
2013-09-04 15:47:00,79.4,56.0,29.89,West,276,6.0,15.0,44,0.00,,,0.00,weatherlink.com 1.10,2013-09-04 19:47:00,
2013-09-04 16:02:00,79.2,57.0,29.88,SSW,212,9.0,19.0,47,0.00,,,0.00,weatherlink.com 1.10,2013-09-04 20:02:00,
2013-09-04 16:17:00,79.8,58.0,29.88,West,273,10.0,14.0,48,0.00,,,0.00,weatherlink.com 1.10,2013-09-04 20:17:00,
2013-09-04 16:32:00,79.7,58.0,29.88,West,259,5.0,16.0,48,0.00,,,0.00,weatherlink.com 1.10,2013-09-04 20:32:00,
2013-09-04 16:47:00,80.0,59.0,29.88,SW,230,9.0,15.0,48,0.00,,,0.00,weatherlink.com 1.10,2013-09-04 20:47:00,
2013-09-04 17:02:00,79.9,61.0,29.88,WSW,245,13.0,16.0,53,0.00,,,0.00,weatherlink.com 1.10,2013-09-04 21:02:00,
2013-09-04 17:17:00,79.7,60.0,29.88,SW,236,14.0,15.0,51,0.00,,,0.00,weatherlink.com 1.10,2013-09-04 21:17:00,
2013-09-04 17:32:00,79.8,61.0,29.88,WSW,247,14.0,18.0,52,0.00,,,0.00,weatherlink.com 1.10,2013-09-04 21:32:00,
2013-09-04 17:47:00,80.1,61.0,29.88,WSW,249,13.0,16.0,53,0.00,,,0.00,weatherlink.com 1.10,2013-09-04 21:47:00,
2013-09-04 18:02:00,79.6,60.0,29.88,West,264,15.0,20.0,52,0.00,,,0.00,weatherlink.com 1.10,2013-09-04 22:02:00,
2013-09-04 18:17:00,79.0,61.0,29.88,WSW,246,11.0,17.0,54,0.00,,,0.00,weatherlink.com 1.10,2013-09-04 22:17:00,
2013-09-04 18:32:00,79.3,62.0,29.88,WSW,243,10.0,16.0,56,0.00,,,0.00,weatherlink.com 1.10,2013-09-04 22:32:00,
2013-09-04 18:47:00,79.5,61.0,29.88,WSW,249,13.0,14.0,54,0.00,,,0.00,weatherlink.com 1.10,2013-09-04 22:47:00,
2013-09-04 19:02:00,79.2,62.0,29.88,WSW,243,10.0,15.0,55,0.00,,,0.00,weatherlink.com 1.10,2013-09-04 23:02:00,
2013-09-04 19:17:00,78.8,60.0,29.88,WSW,239,12.0,17.0,52,0.00,,,0.00,weatherlink.com 1.10,2013-09-04 23:17:00,
2013-09-04 19:32:00,78.8,60.0,29.88,WSW,244,13.0,17.0,52,0.00,,,0.00,weatherlink.com 1.10,2013-09-04 23:32:00,
2013-09-04 19:47:00,78.7,58.0,29.88,WSW,251,11.0,18.0,50,0.00,,,0.00,weatherlink.com 1.10,2013-09-04 23:47:00,
2013-09-04 20:02:00,78.4,60.0,29.89,WSW,238,10.0,21.0,54,0.00,,,0.00,weatherlink.com 1.10,2013-09-05 00:02:00,
2013-09-04 20:17:00,78.2,61.0,29.89,West,269,8.0,17.0,55,0.00,,,0.00,weatherlink.com 1.10,2013-09-05 00:17:00,
2013-09-04 20:32:00,77.9,61.0,29.89,WSW,240,11.0,17.0,57,0.00,,,0.00,weatherlink.com 1.10,2013-09-05 00:32:00,
2013-09-04 20:47:00,77.9,61.0,29.89,SW,233,10.0,16.0,57,0.00,,,0.00,weatherlink.com 1.10,2013-09-05 00:47:00,
2013-09-04 21:02:00,77.6,61.0,29.90,WSW,242,12.0,17.0,56,0.00,,,0.00,weatherlink.com 1.10,2013-09-05 01:02:00,
2013-09-04 21:17:00,77.3,63.0,29.90,WSW,243,9.0,15.0,62,0.00,,,0.00,weatherlink.com 1.10,2013-09-05 01:17:00,
2013-09-04 21:32:00,77.2,61.0,29.90,WSW,240,10.0,15.0,58,0.00,,,0.00,weatherlink.com 1.10,2013-09-05 01:32:00,
2013-09-04 21:47:00,77.0,61.0,29.91,WSW,245,11.0,14.0,58,0.00,,,0.00,weatherlink.com 1.10,2013-09-05 01:47:00,
2013-09-04 22:02:00,76.7,63.0,29.91,WSW,256,7.0,12.0,62,0.00,,,0.00,weatherlink.com 1.10,2013-09-05 02:02:00,
2013-09-04 22:17:00,76.6,63.0,29.91,WSW,240,11.0,14.0,62,0.00,,,0.00,weatherlink.com 1.10,2013-09-05 02:17:00,
2013-09-04 22:32:00,76.4,62.0,29.91,West,264,10.0,14.0,61,0.00,,,0.00,weatherlink.com 1.10,2013-09-05 02:32:00,
2013-09-04 22:47:00,76.2,61.0,29.91,WSW,255,8.0,15.0,60,0.00,,,0.00,weatherlink.com 1.10,2013-09-05 02:47:00,
2013-09-04 23:02:00,76.0,61.0,29.91,WSW,240,9.0,14.0,61,0.00,,,0.00,weatherlink.com 1.10,2013-09-05 03:02:00,
2013-09-04 23:17:00,75.8,60.0,29.91,WSW,258,6.0,14.0,59,0.00,,,0.00,weatherlink.com 1.10,2013-09-05 03:17:00,
2013-09-04 23:32:00,75.7,61.0,29.91,WSW,256,8.0,10.0,60,0.00,,,0.00,weatherlink.com 1.10,2013-09-05 03:32:00,
2013-09-04 23:47:00,75.6,60.0,29.91,WSW,245,11.0,13.0,59,0.00,,,0.00,weatherlink.com 1.10,2013-09-05 03:47:00,